GW3991 Weather Reports


time (UTC)temp
C
wind
direction
speed
KPH
gust
KPH
rain 1hr
cm
rain 24hr
cm
rain mn
cm
humidity
%
barometer
mb
20260504235037 20 357 11.3 22.5 0.00 0.00 0.00 35 1005.5
20260504234533 21 345 14.5 24.1 0.00 0.00 0.00 34 1005.6
20260504234031 21 13 12.9 33.8 0.00 0.00 0.00 34 1005.6
20260504233526 21 8 14.5 25.7 0.00 0.00 0.00 33 1005.6
20260504233023 21 342 27.4 35.4 0.00 0.00 0.00 32 1005.2
20260504232520 21 343 14.5 24.1 0.00 0.00 0.00 33 1005.4
20260504232018 21 359 12.9 27.4 0.00 0.00 0.00 33 1005.3
20260504231514 21 340 20.9 40.2 0.00 0.00 0.00 32 1005.3
20260504231010 22 20 14.5 24.1 0.00 0.00 0.00 34 1005.1
20260504230507 22 349 20.9 37.0 0.00 0.00 0.00 32 1004.7
20260504230006 22 5 20.9 33.8 0.00 0.00 0.00 31 1005.1
20260504225502 22 346 14.5 24.1 0.00 0.00 0.00 33 1004.9
20260504224959 22 5 16.1 37.0 0.00 0.00 0.00 31 1004.5
20260504224455 22 348 14.5 30.6 0.00 0.00 0.00 30 1004.3
20260504223953 22 350 27.4 33.8 0.00 0.00 0.00 30 1004.4
20260504223449 22 347 27.4 30.6 0.00 0.00 0.00 30 1004.2
20260504222944 22 13 19.3 37.0 0.00 0.00 0.00 31 1004.3
20260504222442 23 23 25.7 30.6 0.00 0.00 0.00 30 1004.0
20260504221940 23 353 24.1 32.2 0.00 0.00 0.00 30 1003.9
20260504221437 23 348 20.9 27.4 0.00 0.00 0.00 30 1003.7
20260504220934 23 352 16.1 33.8 0.00 0.00 0.00 31 1003.8
20260504220430 23 355 16.1 30.6 0.00 0.00 0.00 30 1003.5
20260504215927 23 349 17.7 27.4 0.00 0.00 0.00 32 1003.5
20260504215424 24 351 12.9 25.7 0.00 0.00 0.00 31 1003.5
20260504214921 24 352 11.3 29.0 0.00 0.00 0.00 30 1003.2
20260504214417 24 349 22.5 29.0 0.00 0.00 0.00 29 1003.5
20260504213914 24 359 14.5 25.7 0.00 0.00 0.00 30 1003.1
20260504213410 25 345 16.1 20.9 0.00 0.00 0.00 29 1003.2
20260504212908 24 339 19.3 29.0 0.00 0.00 0.00 31 1003.2
20260504212403 24 348 17.7 19.3 0.00 0.00 0.00 30 1003.2
20260504211901 25 356 9.7 25.7 0.00 0.00 0.00 30 1003.2
20260504211357 25 356 11.3 20.9 0.00 0.00 0.00 30 1003.1
20260504210854 25 350 20.9 30.6 0.00 0.00 0.00 30 1003.1
20260504210346 25 354 14.5 20.9 0.00 0.00 0.00 30 1003.1
20260504205843 25 349 16.1 20.9 0.00 0.00 0.00 31 1003.1
20260504205341 25 346 12.9 30.6 0.00 0.00 0.00 32 1002.9
20260504204839 25 353 14.5 25.7 0.00 0.00 0.00 31 1003.1
20260504204337 25 345 22.5 25.7 0.00 0.00 0.00 32 1003.0
20260504203836 25 343 11.3 22.5 0.00 0.00 0.00 32 1003.0
20260504203333 24 356 14.5 27.4 0.00 0.00 0.00 34 1003.1
20260504202828 25 0 14.5 24.1 0.00 0.00 0.00 35 1003.0
20260504202326 25 349 22.5 25.7 0.00 0.00 0.00 34 1002.9
20260504201822 25 348 12.9 25.7 0.00 0.00 0.00 35 1002.7
20260504201320 25 344 20.9 24.1 0.00 0.00 0.00 34 1002.9
20260504200817 25 333 17.7 27.4 0.00 0.00 0.00 34 1003.0
20260504200314 25 349 12.9 25.7 0.00 0.00 0.00 36 1003.0
20260504195810 25 340 19.3 27.4 0.00 0.00 0.00 36 1003.0
20260504195306 25 345 11.3 20.9 0.00 0.00 0.00 37 1002.9
20260504194803 25 339 17.7 27.4 0.00 0.00 0.00 35 1002.9
20260504194259 25 348 17.7 32.2 0.00 0.00 0.00 36 1003.1
20260504193755 25 5 8.0 27.4 0.00 0.00 0.00 36 1002.8
20260504193253 25 341 16.1 24.1 0.00 0.00 0.00 37 1002.7
20260504192751 25 357 24.1 25.7 0.00 0.00 0.00 34 1002.5
20260504192249 25 352 11.3 30.6 0.00 0.00 0.00 34 1002.7
20260504191747 25 336 17.7 25.7 0.00 0.00 0.00 37 1002.7
20260504191244 25 319 30.6 38.6 0.00 0.00 0.00 33 1002.7
20260504190739 25 315 22.5 32.2 0.00 0.00 0.00 33 1002.4
20260504190236 26 341 16.1 32.2 0.00 0.00 0.00 33 1002.5
20260504185732 26 320 32.2 43.5 0.00 0.00 0.00 34 1002.3
20260504185229 26 342 17.7 30.6 0.00 0.00 0.00 31 1002.6
20260504184725 26 332 30.6 33.8 0.00 0.00 0.00 32 1002.2
20260504184221 26 326 29.0 46.7 0.00 0.00 0.00 32 1002.2
20260504183717 26 351 14.5 22.5 0.00 0.00 0.00 32 1002.1
20260504183215 26 340 17.7 37.0 0.00 0.00 0.00 33 1002.1
20260504182713 25 330 24.1 33.8 0.00 0.00 0.00 33 1002.1
20260504182210 26 311 35.4 38.6 0.00 0.00 0.00 32 1002.1
20260504181707 26 308 29.0 37.0 0.00 0.00 0.00 30 1002.2
20260504181204 26 329 14.5 20.9 0.00 0.00 0.00 30 1002.0
20260504180703 25 304 22.5 30.6 0.00 0.00 0.00 30 1002.1
20260504180202 25 304 17.7 38.6 0.00 0.00 0.00 31 1002.4
20260504175658 26 322 20.9 27.4 0.00 0.00 0.00 31 1002.5
20260504175155 26 322 24.1 29.0 0.00 0.00 0.00 31 1002.5
20260504174653 25 316 35.4 38.6 0.00 0.00 0.00 30 1002.4
20260504174150 25 309 20.9 29.0 0.00 0.00 0.00 31 1002.3
20260504173647 26 345 20.9 30.6 0.00 0.00 0.00 31 1002.5
20260504173144 25 323 17.7 33.8 0.00 0.00 0.00 36 1002.5
20260504172641 25 314 30.6 41.8 0.00 0.00 0.00 35 1002.4
20260504172137 26 317 22.5 29.0 0.00 0.00 0.00 31 1002.5
20260504171634 26 294 25.7 35.4 0.00 0.00 0.00 29 1002.6
20260504171131 26 313 24.1 30.6 0.00 0.00 0.00 30 1002.4
20260504170627 25 297 17.7 24.1 0.00 0.00 0.00 31 1002.4
20260504170125 25 312 24.1 30.6 0.00 0.00 0.00 35 1002.3
20260504151004 19 257 12.9 12.9 0.00 0.00 0.00 47 1003.0
20260504150502 19 250 11.3 14.5 0.00 0.00 0.00 48 1002.9
20260504140928 16 307 11.3 14.5 0.00 0.00 0.00 58 1003.3
20260504140424 16 328 6.4 9.7 0.00 0.00 0.00 57 1003.4
20260504130349 12 311 11.3 11.3 0.00 0.00 0.00 72 1003.3
20260504120312 10 125 3.2 3.2 0.00 0.00 0.00 80 1002.8
20260504110236 9 105 3.2 3.2 0.00 0.00 0.00 83 1002.9
20260504100154 10 2 1.6 4.8 0.00 0.00 0.00 81 1002.9
20260504090117 11 39 0.0 3.2 0.00 0.00 0.00 83 1003.5
20260504081552 11 83 1.6 3.2 0.00 0.00 0.00 80 1004.2
20260504081048 11 28 3.2 4.8 0.00 0.00 0.00 82 1004.5
20260504080545 11 77 1.6 3.2 0.00 0.00 0.00 82 1004.3
20260504050357 13 118 3.2 3.2 0.00 0.00 0.00 60 1007.2
20260504045855 14 102 0.0 3.2 0.00 0.00 0.00 62 1007.0
20260504045349 15 116 0.0 3.2 0.00 0.00 0.00 60 1007.0
20260504044847 15 144 3.2 4.8 0.00 0.00 0.00 62 1007.0
20260504044344 15 120 1.6 3.2 0.00 0.00 0.00 60 1007.4
20260504043841 15 116 3.2 4.8 0.00 0.00 0.00 56 1007.3
20260504043338 15 131 1.6 4.8 0.00 0.00 0.00 62 1007.4
20260504042835 15 123 1.6 3.2 0.00 0.00 0.00 57 1007.3
20260504042331 15 122 1.6 3.2 0.00 0.00 0.00 56 1007.3
20260504041828 15 126 4.8 4.8 0.00 0.00 0.00 56 1007.5
20260504041324 16 133 3.2 6.4 0.00 0.00 0.00 61 1007.7
20260504040820 16 135 4.8 4.8 0.00 0.00 0.00 58 1007.7
20260504040318 16 137 3.2 4.8 0.00 0.00 0.00 56 1007.7
20260504035814 16 108 1.6 4.8 0.00 0.00 0.00 56 1007.9
20260504035311 15 119 1.6 3.2 0.00 0.00 0.00 61 1008.0
20260504034809 15 122 0.0 4.8 0.00 0.00 0.00 72 1007.7
20260504034306 15 43 0.0 1.6 0.00 0.00 0.00 74 1007.9
20260504033803 16 122 0.0 1.6 0.00 0.00 0.00 74 1008.1
20260504033301 16 157 0.0 3.2 0.00 0.00 0.00 76 1008.0
20260504032757 16 161 0.0 4.8 0.00 0.00 0.00 75 1008.1
20260504032254 16 175 1.6 3.2 0.00 0.00 0.00 78 1008.0
20260504031751 16 123 3.2 4.8 0.00 0.00 0.00 68 1008.1
20260504031249 16 126 3.2 3.2 0.00 0.00 0.00 68 1008.2
20260504030744 16 101 1.6 4.8 0.00 0.00 0.00 68 1008.0
20260504030242 16 100 3.2 6.4 0.00 0.00 0.00 72 1008.0
20260504025738 16 104 3.2 4.8 0.00 0.00 0.00 71 1008.2
20260504025235 16 140 3.2 4.8 0.00 0.00 0.00 66 1008.2
20260504024732 16 89 0.0 3.2 0.00 0.00 0.00 64 1008.1
20260504024228 17 120 0.0 4.8 0.00 0.00 0.00 62 1008.2
20260504023725 16 120 3.2 4.8 0.00 0.00 0.00 65 1008.0
20260504023221 17 87 3.2 3.2 0.00 0.00 0.00 62 1008.2
20260504022717 17 110 0.0 3.2 0.00 0.00 0.00 60 1008.4
20260504022214 17 87 3.2 3.2 0.00 0.00 0.00 55 1008.3
20260504021712 17 122 1.6 3.2 0.00 0.00 0.00 56 1008.4
20260504021208 17 111 3.2 3.2 0.00 0.00 0.00 59 1008.3
20260504020705 17 86 3.2 4.8 0.00 0.00 0.00 62 1008.4
20260504020201 18 91 3.2 4.8 0.00 0.00 0.00 52 1008.4
20260504015658 18 108 4.8 6.4 0.00 0.00 0.00 44 1008.5
20260504015154 18 108 3.2 4.8 0.00 0.00 0.00 47 1008.5
20260504014650 18 113 1.6 3.2 0.00 0.00 0.00 42 1008.5
20260504014147 19 121 1.6 3.2 0.00 0.00 0.00 42 1008.5
20260504013645 20 139 1.6 3.2 0.00 0.00 0.00 43 1008.5
20260504013141 20 146 1.6 3.2 0.00 0.00 0.00 41 1008.4
20260504012639 20 202 0.0 4.8 0.00 0.00 0.00 37 1008.3
20260504012131 20 198 3.2 4.8 0.00 0.00 0.00 37 1008.6
20260504011627 20 169 1.6 3.2 0.00 0.00 0.00 41 1008.5
20260504011124 21 199 1.6 3.2 0.00 0.00 0.00 37 1008.6
20260504010620 21 209 3.2 4.8 0.00 0.00 0.00 37 1008.8
20260504010116 21 176 1.6 4.8 0.00 0.00 0.00 43 1008.7
20260504005613 21 195 3.2 4.8 0.00 0.00 0.00 35 1008.7
20260504005110 22 198 3.2 4.8 0.00 0.00 0.00 36 1008.9
20260504004608 22 212 1.6 1.6 0.00 0.00 0.00 34 1008.8
20260504004105 22 232 1.6 1.6 0.00 0.00 0.00 33 1008.9
20260504003600 22 282 1.6 3.2 0.00 0.00 0.00 32 1008.9
20260504003057 22 243 4.8 8.0 0.00 0.00 0.00 32 1008.9
20260504002554 22 236 4.8 4.8 0.00 0.00 0.00 32 1008.9
20260504002052 23 229 3.2 6.4 0.00 0.00 0.00 32 1009.0
20260504001549 23 210 3.2 6.4 0.00 0.00 0.00 33 1009.2
20260504001045 23 245 4.8 11.3 0.00 0.00 0.00 32 1009.3
20260504000543 23 254 8.0 9.7 0.00 0.00 0.00 31 1009.1
20260504000040 23 292 4.8 11.3 0.00 0.00 0.00 30 1009.3
20260503235538 23 225 11.3 12.9 0.00 0.00 0.00 31 1009.4